Location: Newark
(44.3681°N, 100.3364°W)
Time: 11:03:01
(UTC+00:00)

Vanguard 1 - Pass Details

Date: 24 February 2020
Orbit: 649 x 3833 km, 34.2° (Epoch: 07 April)

Event Time Altitude Azimuth Distance (km) Brightness Sun altitude
Rises 15:29:17 0° 247° (WSW) 7,968 14.4 19.0°
Reaches altitude 10° 15:35:03 10° 245° (WSW) 6,850 14.1 19.8°
Maximum altitude 15:55:56 57° 174° (S) 3,221 13.5 22.7°
Drops below altitude 10° 16:08:32 10° 101° (E) 4,366 14.4 24.4°
Sets 16:11:19 0° 97° (E) 5,028 14.5 24.7°
